This is the latest recevied weather packets stored in our database for station/object Krozingen. If no packets are shown the sender has not sent any weather packets the latest 10 day(s).
| Time | Temp. | Humidity | Pressure | Rain* | Wind** | Luminosity | Snow |
|---|---|---|---|---|---|---|---|
| 1788573729 | 20° C | 75% | 1018.6 hPa | 0 mm | - | - | - |
| 1788571929 | 20° C | 75% | 1018.4 hPa | 0 mm | - | - | - |
| 1788570129 | 20° C | 74% | 1018.1 hPa | 0 mm | - | - | - |
| 1788568331 | 20.56° C | 74% | 1018 hPa | 0 mm | - | - | - |
| 1788566531 | 20.56° C | 73% | 1017.8 hPa | 0 mm | - | - | - |
| 1788564731 | 21.67° C | 70% | 1017.3 hPa | 0 mm | - | - | - |
| 1788562931 | 22.78° C | 66% | 1017.1 hPa | 0 mm | - | - | - |
| 1788561131 | 23.33° C | 64% | 1016.6 hPa | 0 mm | - | - | - |
| 1788559332 | 23.89° C | 63% | 1016.3 hPa | 0 mm | - | - | - |
| 1788557531 | 24.44° C | 61% | 1016.1 hPa | 0 mm | - | - | - |
| 1788555731 | 25° C | 59% | 1015.8 hPa | 0 mm | - | - | - |
| 1788553931 | 25.56° C | 58% | 1015.7 hPa | 0 mm | - | - | - |
| 1788552130 | 26.11° C | 57% | 1015.5 hPa | 0 mm | - | - | - |
| 1788550330 | 26.11° C | 57% | 1015.5 hPa | 0 mm | - | - | - |
| 1788548531 | 26.67° C | 57% | 1015.3 hPa | 0 mm | - | - | - |
| 1788546731 | 27.78° C | 54% | 1015 hPa | 0 mm | - | - | - |
| 1788544931 | 28.89° C | 51% | 1014.8 hPa | 0 mm | - | - | - |
| 1788543130 | 30.56° C | 47% | 1014.7 hPa | 0 mm | - | - | - |
| 1788541344 | 31.67° C | 44% | 1014.7 hPa | 0 mm | - | - | - |
| 1788539531 | 32.22° C | 44% | 1014.6 hPa | 0 mm | - | - | - |
| 1788537731 | 32.22° C | 41% | 1014.5 hPa | 0 mm | - | - | - |
| 1788535931 | 32.22° C | 43% | 1014.8 hPa | 0 mm | - | - | - |
| 1788534131 | 32.22° C | 42% | 1014.7 hPa | 0 mm | - | - | - |
| 1788532330 | 32.22° C | 44% | 1014.8 hPa | 0 mm | - | - | - |
| 1788530531 | 31.67° C | 43% | 1015.2 hPa | 0 mm | - | - | - |
* Rain since midnight (hover to see other rain measurements)
** Current wind speed in m/s (hover to see current wind gust speed)